Regional Weather Roundup
Issued by NWS

Home | Current Version | Previous Version | Graphics & Text | Print | Product List | Glossary On
Versions: 1 2 3 4 5 6 7 8 9 10 11 12 13 14 15 16 17 18 19 20 21 22 23 24 25 26 27 28 29 30 31 32 33 34 35 36 37 38 39 40 41 42 43 44 45 46 47 48 49 50
000
ASUS43 KIND 270609
RWRIN

WEATHER ROUNDUP FOR INDIANA
NATIONAL WEATHER SERVICE INDIANAPOLIS IN
200 AM EDT MON APR 27 2015

NOTE: "FAIR" INDICATES FEW OR NO CLOUDS BELOW 12,000 FEET WITH NO
SIGNIFICANT WEATHER AND/OR OBSTRUCTIONS TO VISIBILITY.

* - STATION DOES NOT REPORT WEATHER SUCH AS PRECIPITATION OR FOG.

+ - STATION NOT QUALITY CONTROLLED BY THE NATIONAL WEATHER SERVICE.
    USE DATA WITH CAUTION...ESPECIALLY DEWPOINT AND RELATIVE
    HUMIDITY OBSERVATIONS.

INZ001>003-010>013-019-020-270700-
NORTHWEST INDIANA

CITY           SKY/WX    TMP DP  RH WIND       PRES   REMARKS
GARY /AIRPORT/ CLEAR     44  31  60 N16G23    30.05S
KNOX *+        CLEAR     34  25  69 NW7       30.00S WCI  28
LA PORTE +     CLEAR     39  35  84 NW9       30.01S
6HR MIN TEMP:  39; 6HR MAX TEMP:  47;

MICHIGAN CITY+ CLEAR     37  32  81 N7        30.02S
MONTICELLO +   CLEAR     37  31  81 NW8       29.99S
6HR MIN TEMP:  35; 6HR MAX TEMP:  50;

VALPARAISO     CLEAR     39  32  76 NW8       30.02R
6HR MIN TEMP:  39; 6HR MAX TEMP:  45;


$$

LMZ046-743>745-270700-
SOUTHERN LAKE MICHIGAN

STATION/POSITION TIME  TEMP    WIND        PRES    WAVE
                       AIR SEA DIR/SP/G            HT
                 (UTC) (F)     (DEG/KT/KT) (MB)    (FT)
BURNS HARBOR     0600   42     350/ 18/ 23 1016.9S
MICHIGAN CITY    0600   40     350/ 12/ 15   N/A
5NW MICH CITY    0600   41 45  350/ 14/ 19   N/A     4

$$

INZ004-005-014>016-021>024-270700-
NORTH CENTRAL INDIANA

CITY           SKY/WX    TMP DP  RH WIND       PRES   REMARKS
GOSHEN         CLEAR     39  28  64 NW6       29.96S
6HR MIN TEMP:  38; 6HR MAX TEMP:  52;

LOGANSPORT +   CLEAR     37  28  70 N8        29.99R
PERU/GRISSOM   MOCLDY    40  29  63 NW8       29.97R
6HR MIN TEMP:  40; 6HR MAX TEMP:  53;

ROCHESTER +    CLEAR     41  32  70 NW6       29.98S
SOUTH BEND     CLEAR     40  31  70 N8        29.99S
6HR MIN TEMP:  39; 6HR MAX TEMP:  49;

WARSAW +       MOCLDY    39  28  65 NW7       29.96S

$$

INZ006>009-017-018-025>027-270700-
NORTHEAST INDIANA

CITY           SKY/WX    TMP DP  RH WIND       PRES   REMARKS
ANGOLA *+      CLEAR     43  28  56 N6        29.94S
AUBURN +       MOCLDY    45  30  57 NW5       29.94S
FORT WAYNE     PTCLDY    45  31  58 NW8       29.94S
6HR MIN TEMP:  45; 6HR MAX TEMP:  53;

HUNTINGTON +   CLOUDY    43  29  58 NW5       29.95S
6HR MIN TEMP:  43; 6HR MAX TEMP:  54;


$$

INZ028-029-035-036-043>045-051>053-270700-
WEST CENTRAL INDIANA

CITY           SKY/WX    TMP DP  RH WIND       PRES   REMARKS
CRAWFORDSVL +  CLEAR     36  25  64 NW6       29.99S
6HR MIN TEMP:  35; 6HR MAX TEMP:  50;

GREENCASTLE +  CLEAR     41  27  56 NW8       29.99S
LAFAYETTE      CLEAR     36  29  75 NW8       30.00S
6HR MIN TEMP:  35; 6HR MAX TEMP:  51;

TERRE HAUTE    CLEAR     43  30  60 N7        30.00S
6HR MIN TEMP:  43; 6HR MAX TEMP:  56;


$$

INZ030>032-037>040-046>048-054>057-064-065-270700-
CENTRAL INDIANA

CITY           SKY/WX    TMP DP  RH WIND       PRES   REMARKS
CP ATTERBURY + CLEAR     43  34  70 NW5       29.97S
FISHERS *+     CLEAR     39  32  75 NW3       29.96
FRANKFORT +    CLEAR     38  31  74 W6        30.00S
6HR MIN TEMP:  38; 6HR MAX TEMP:  53;

GREENWOOD *+   CLEAR     43  28  56 NW5       29.97S
INDIANAPOLIS   PTCLDY    40  29  64 NW7       29.95F
6HR MIN TEMP:  40; 6HR MAX TEMP:  54;

-EAGLE CREEK   CLEAR     43  30  60 NW9       29.96S
6HR MIN TEMP:  43; 6HR MAX TEMP:  55;

KOKOMO *+      CLEAR     39  28  65 NW8       29.97S
6HR MIN TEMP:  39; 6HR MAX TEMP:  54;

MARION +       PTCLDY    42  30  62 NW5       29.96S
MT COMFORT *+  CLEAR     39  25  56 N6        29.96S
SHELBYVILLE    PTCLDY    43  34  70 N6        29.95S
6HR MIN TEMP:  43; 6HR MAX TEMP:  56;

ZIONSVILLE +   CLEAR     40  29  64 NW6       29.97S
6HR MIN TEMP:  40; 6HR MAX TEMP:  55;


$$

INZ033-034-041-042-049-050-058-059-270700-
EAST CENTRAL INDIANA

CITY           SKY/WX    TMP DP  RH WIND       PRES   REMARKS
MUNCIE         CLOUDY    45  35  68 NW5       29.94S
6HR MIN TEMP:  45; 6HR MAX TEMP:  53;


$$

INZ060-061-067>069-081>083-085>088-270700-
SOUTHWEST INDIANA

CITY           SKY/WX    TMP DP  RH WIND       PRES   REMARKS
EVANSVILLE     CLEAR     49  36  61 N9        29.98F
6HR MIN TEMP:  49; 6HR MAX TEMP:  60;

HUNTINGBURG *+ CLEAR     46  34  61 N8        29.97F
6HR MIN TEMP:  46; 6HR MAX TEMP:  57;

WASHINGTON +   CLEAR     45  32  61 N8        29.98S
6HR MIN TEMP:  45; 6HR MAX TEMP:  57;


$$

INZ062-063-066-070>080-084-089>092-270700-
SOUTH CENTRAL AND SOUTHEAST INDIANA

CITY           SKY/WX    TMP DP  RH WIND       PRES   REMARKS
BEDFORD +      CLEAR     45  34  65 N6        29.97S
BLOOMINGTON    CLEAR     43  32  65 N3        29.98R
6HR MIN TEMP:  42; 6HR MAX TEMP:  53;

MADISON *+     PTCLDY    43  36  75 NW3       29.96R
NORTH VERNON + PTCLDY    45  37  76 NW7       29.95R
SEYMOUR +      CLEAR     48  36  61 N7        29.96R

$$




USA.gov is the U.S. government's official web portal to all federal, state and local government web resources and services.